Regional Weather Roundup
Issued by NWS

Home | Current Version | Previous Version | Graphics & Text | Print | Product List | Glossary On
Versions: 1 2 3 4 5 6 7 8 9 10 11 12 13 14 15 16 17 18 19 20 21 22 23 24 25 26 27
000
ASUS45 KBOU 281007
RWRCO

WEATHER ROUNDUP FOR COLORADO
NATIONAL WEATHER SERVICE DENVER/BOULDER CO
400 AM MDT SUN AUG 28 2016

NOTE: "FAIR" INDICATES FEW OR NO CLOUDS BELOW 12000 FEET WITH NO
SIGNIFICANT WEATHER AND/OR OBSTRUCTIONS TO VISIBILITY.

COZ001>005-013-030-031-281100-
...NORTHWEST COLORADO...

CITY           SKY/WX    TMP DP  RH WIND       PRES   REMARKS
CRAIG          FAIR      45  39  79 CALM      30.26R
HAYDEN         FAIR      48  30  49 E12       30.28R
MEEKER         FAIR      44  40  85 NE6       30.27S
MOUNT WERNER   NOT AVBL
STEAMBOAT SPGS FAIR      43  34  71 CALM      30.30R
WALDEN         FAIR      36  30  80 SE9       30.37R
$$

COZ006>008-011-281100-
...WEST CENTRAL VALLEYS...

CITY           SKY/WX    TMP DP  RH WIND       PRES   REMARKS
GRAND JUNCTION FAIR      62  48  60 SE9       30.18R
MONTROSE       CLOUDY    58  45  62 SE7       30.25R
EAGLE          FAIR      50  43  76 CALM      30.31R
RIFLE          FAIR      53  49  86 SE5       30.24R
DELTA          NOT AVBL
NUCLA          FAIR     N/A N/A N/A SE3       30.30R
$$

COZ017>023-064>068-281100-
...SOUTHWEST COLORADO...

CITY           SKY/WX    TMP DP  RH WIND       PRES   REMARKS
DURANGO        FAIR      45  43  93 CALM      30.29R
CORTEZ         FAIR      49  47  93 E6        30.26R
PAGOSA SPRINGS FAIR      43  43  99 CALM      30.35S
TELLURIDE      CLOUDY    46  43  92 CALM      30.43S
WOLF CREEK PAS FAIR      34  34 100 SW7       30.57S WCI  28
$$

COZ009-010-012-014-032>034-037-058>063-281100-
...CENTRAL COLORADO...

CITY           SKY/WX    TMP DP  RH WIND       PRES   REMARKS
ASPEN          FAIR      48  41  76 SW6       30.34S
BUENA VISTA    FAIR      47  42  82 W5        30.36F
COPPER MTN     CLOUDY    45  32  61 CALM      30.59R
BERTHOUD PASS  CLOUDY    36  25  64 N9G21     30.61R
COTTONWOOD PAS FAIR      52  34  50 SW5       30.45S
GUNNISON       FAIR      48  43  81 N6        30.39R
KREMMLING      FAIR      39  34  81 CALM      30.36S
LEADVILLE      MOCLDY    41  35  79 E3        30.45R
MONARCH PASS   MOCLDY    39  34  81 S9        30.66S
SALIDA         FAIR      54  43  66 W5        30.40S
SUNLIGHT       FAIR      45  39  81 CALM      30.53S
WILKERSON PASS LGT RAIN  45  32  61 W3        30.56S
$$

COZ069>075-281100-
...SAN LUIS VALLEY/SANGRE DE CRISTO MOUNTAINS...

CITY           SKY/WX    TMP DP  RH WIND       PRES   REMARKS
ALAMOSA        FAIR      38  36  92 S5        30.33S
LA VETA PASS   NOT AVBL
SAGUACHE       FAIR      45  41  87 N8        30.37S
$$

COZ035-036-038>040-281100-
...NORTHERN COLORADO FRONT RANGE...

CITY           SKY/WX    TMP DP  RH WIND       PRES   REMARKS
DENVER INTL AP MOCLDY    63  47  55 SW8       30.14R
DMNS CITY PARK   N/A     63  41  44 S3        30.14R
AURORA         MOCLDY    61  47  60 W2        30.16R
FRONT RANGE AP NOT AVBL
ERIE MUNI ARPT NOT AVBL
BOULDER MUN AP FAIR      59  41  51 N3        30.14R
CENTENNIAL     MOCLDY    64  43  46 W7        30.17R
BROOMFIELD     FAIR      64  36  34 W3        30.16R
FORT COLLINS   FAIR      52  43  71 N5        30.13R
LONGMONT       FAIR      57  44  62 CALM      30.15R
$$

COZ041-046-047-076>085-087-088-281100-
...PIKES PEAK/PALMER DIVIDE AND SOUTHERN FOOTHILLS...

CITY           SKY/WX    TMP DP  RH WIND       PRES   REMARKS
COLO. SPRINGS  MOCLDY    60  47  61 SE8       30.22R
A. F. ACADEMY  MOCLDY    53  47  78 N10       30.21S
SCHRIEVER AFB  NOT AVBL
ELLICOTT       NOT AVBL
FALCON         CLOUDY    60  45  57 CALM      30.25S
FORT CARSON    CLOUDY    58  49  72 E3        30.18R
LIMON          FAIR      51  51 100 S5        30.18R
MONUMENT HILL  MOCLDY    57  43  58 SW7       30.26S
TRINIDAD       MOCLDY    60  50  69 NW6       30.19S
$$

COZ042>045-048>051-090-091-281100-
...NORTHEAST COLORADO...

CITY           SKY/WX    TMP DP  RH WIND       PRES   REMARKS
GREELEY ARPT   FAIR      54  48  82 N6        30.12R
AKRON          FAIR      59  54  83 SW9       30.11S
BURLINGTON     FAIR      64  53  67 SW17      30.11R
WRAY           FAIR      59  55  88 CALM      30.08R
STERLING       FAIR      52  46  82 W5        30.08S
HOLYOKE        FOG       55  54  94 CALM      30.09R VSB 1
FORT MORGAN    FAIR      55  49  79 E7        30.11S
$$

COZ086-089-092>099-281100-
...SOUTHEAST COLORADO...

CITY           SKY/WX    TMP DP  RH WIND       PRES   REMARKS
PUEBLO         FAIR      63  56  78 CALM      30.11S
LA JUNTA       FAIR      67  54  63 SE14      30.11R
LAMAR          FAIR      64  56  75 S12       30.09R
SPRINGFIELD      N/A     57  56  96 SW6       30.15F
$$




USA.gov is the U.S. government's official web portal to all federal, state and local government web resources and services.